Volver al catálogo

QIANFAN-65

ActivoComunicacionesPO
NORAD 62795·PAYLOAD·🇨🇳 China

Lanzado Jan 23, 2025 desde Taiyuan Satellite Launch Center

Loading…

Próximos Pases (próximas 24 horas)

TLE

ActualizadoSource: Space-Track

Época: Sep 14, 2026, 12:58 UTC

1 62795U 25016L   26257.54085694  .00000026  00000-0  22269-4 0  9999
2 62795  88.9652  74.3796 0012070 266.0869  93.8902 13.51023379 84481

Sigue QIANFAN-65 en tiempo real con AllMySat

Download on the App Store